Regional Weather Roundup
Issued by NWS Sioux Falls, SD

Home | Current Version | Previous Version | Text Only | Print | Product List | Glossary On
Versions: 1 2 3 4 5 6 7 8 9 10 11 12 13 14 15 16 17 18 19 20 21 22 23 24 25 26 27 28 29 30 31 32 33 34 35 36 37 38 39 40 41 42 43 44 45 46 47 48 49 50
618
ASUS43 KFSD 300210
RWRFSD

WEATHER ROUNDUP FOR SE SOUTH DAKOTA/SW MINNESOTA/NW IOWA
NATIONAL WEATHER SERVICE SIOUX FALLS SD
900 PM CDT WED MAR 29 2017

NOTE: "FAIR" INDICATES FEW OR NO CLOUDS BELOW 12,000 FEET WITH NO
SIGNIFICANT WEATHER AND OR OBSTRUCTIONS TO VISIBILITY.


SDZ038>040-050-052>070-300300-
SOUTHEAST SOUTH DAKOTA

CITY           SKY/WX    TMP DP  RH WIND       PRES   REMARKS
BROOKINGS      CLOUDY    39  36  87 E10       30.05S
CHAMBERLAIN    CLOUDY    45  37  74 E10       30.02S
HURON          CLOUDY    46  37  71 E12       30.05R
MADISON        CLOUDY    39  39 100 E15G21    30.04S
MITCHELL       CLOUDY    44  37  76 E12       30.05S
SIOUX FALLS    CLOUDY    39  39 100 E14       30.02F
WINNER         CLOUDY    47  37  68 E6        30.00F
YANKTON        CLOUDY    39  36  87 NE10      30.00S
$$

MNZ071-072-080-081-089-090-097-098-300300-
SOUTHWEST MINNESOTA

CITY           SKY/WX    TMP DP  RH WIND       PRES   REMARKS
FAIRMONT       LGT RAIN  39  37  92 E14       30.04F
JACKSON        LGT SNOW  36  36 100 E18G25    30.03F
LUVERNE        DRIZZLE   37  34  87 E12       30.03S
MARSHALL       CLOUDY    41  37  87 SE15      30.07F
MONTEVIDEO     CLOUDY    43  37  81 SE14G22   30.10F
PIPESTONE      DRIZZLE   39  34  81 E12G18    30.03S
REDWOOD FALLS  LGT RAIN  41  37  86 E10       30.08F
TRACY          DRIZZLE   40  38  93 E9        30.07F
WINDOM         LGT RAIN  37  37 100 E20       30.04F
WORTHINGTON    LGT RAIN  37  35  92 E20       30.01F
$$

IAZ001>003-012>014-020>022-031-032-NEZ013-014-SDZ071-300300-
NORTHWEST IOWA

CITY           SKY/WX    TMP DP  RH WIND       PRES   REMARKS
CHEROKEE       CLOUDY    39  38  96 E21G31    29.96S
DENISON        LGT RAIN  39  39 100 NE24G33   29.90S
ESTHERVILLE    LGT RAIN  38  38 100 E18       30.00F
LE MARS        CLOUDY    41  37  87 E20G28    29.96S
ORANGE CITY    CLOUDY    39  37  93 E18G31    29.96S
SHELDON        CLOUDY    39  37  93 E23G31    29.95F
SIOUX CITY     CLOUDY    42  38  85 E22G32    29.91F
SPENCER        CLOUDY    40  37  89 E30G37    29.97F
STORM LAKE     CLOUDY    37  37 100 E28G46    29.94R
$$

ABBREVIATIONS USED IN REMARKS
   TC - TEMPERATURE IN CELSIUS
  WCI - WIND CHILL INDEX
   HX - HEAT INDEX
  VSB - VISIBILITY





USA.gov is the U.S. government's official web portal to all federal, state and local government web resources and services.